Terug naar catalogus

STARLINK-1335

ActiefCommunicatieVLEO
NORAD 45581·PAYLOAD·🇺🇸 United States

Gelanceerd Apr 22, 2020 vanaf Cape Canaveral Space Force Station

Loading…

Volgende Passages (komende 24 uur)

TLE

VersSource: CelesTrak SupGP

Epoch: Sep 14, 2026, 21:20 UTC

1 45581C 20025BC  26257.88937500  .00090796  00000+0  18197-2 0  2579
2 45581  53.1492 266.6692 0005535  57.4344 246.0853 15.46068821    11

Volg STARLINK-1335 in realtime met AllMySat

Download on the App Store